Location: Tr�vern
(48.0333°N, 4.6000°W)
Time: 02:49:51
(UTC+00:00)

IRS-P3 - Pass Details

Date: 14 July 2020
Orbit: 814 x 819 km, 98.8° (Epoch: 04 August)

Event Time Altitude Azimuth Distance (km) Brightness Sun altitude
Rises 03:30:09 0° 11° (N) 3,354 8.4 -8.9°
Reaches altitude 10° 03:32:32 10° 7° (N) 2,418 7.5 -8.6°
Maximum altitude 03:37:44 54° 291° (WNW) 988 4.5 -8.0°
Drops below altitude 10° 03:42:54 10° 215° (SW) 2,405 5.9 -7.4°
Enters shadow 03:43:16 - 215° (SW) 2,543 6.0 -7.4°
